Flag for U.S.A. Weather past 2 weeks in Washington DC, District of Columbia, U.S.A.

Now
65 °F

Passing clouds.


Feels Like: 65 °F
Forecast: 60 / 80 °F
Wind: No wind

Location: Reagan National Airport

Current Time: Sep 20, 2014 at 6:52:13 AM

Latest Report: Sep 20, 2014 at 5:52 AM


Visibility: 10 mi

Pressure: 30.26 "Hg

Humidity: 81%

Dew point: 59 °F

Location of Washington DCLocation

Historic Weather in Washington DC — Graph

°F

Washington DC temperature yesterday

Maximum temperature yesterday: 77 °F (at 3:52 PM)
Minimum temperature yesterday: 61 °F (at 6:52 AM)
Average temperature yesterday: 69 °F

Past Weeks' High & Low Weather Summary

 TemperatureHumidityPressure
High94 °F (Sep 6, 3:52 PM)85% (Sep 5, 6:52 AM)30.33 "Hg (Sep 5, 6:52 AM)
Low56 °F (Sep 14, 5:52 AM)31% (Sep 7, 4:52 PM)29.86 "Hg (Sep 6, 4:52 PM)
Average73 °F62%30.10 "Hg
* Reported Sep 5 5:52 AM — Sep 20 5:52 AM, Washington DC, Weather by CustomWeather, © 2014

Note: Actual official high and low records may vary slightly from our data, if they occured in-between our weather recording intervals... More about our weather records

Advertising

Washington DC weather history for previous 24 hours

 ConditionsComfort  
Time TempWeatherWind HumidityBarometerVisibility
5:52 AM
Sep 20
65 °FPassing clouds.No wind81%30.26 "Hg10 mi
4:52 AM65 °FPassing clouds.No wind81%30.26 "Hg8 mi
3:52 AM65 °FPassing clouds.5 mph85%30.26 "Hg8 mi
2:52 AM66 °FPassing clouds.No wind78%30.27 "Hg10 mi
1:52 AM67 °FPartly cloudy.No wind76%30.29 "Hg10 mi
12:52 AM67 °FClear.3 mph79%30.29 "Hg10 mi
11:52 PM
Sep 19
68 °FClear.8 mph73%30.29 "Hg10 mi
10:52 PM69 °FMostly cloudy.8 mph70%30.31 "Hg10 mi
9:52 PM70 °FPassing clouds.10 mph68%30.30 "Hg10 mi
8:52 PM71 °FOvercast.12 mph66%30.29 "Hg10 mi
7:52 PM72 °FBroken clouds.9 mph61%30.27 "Hg10 mi
6:52 PM73 °FScattered clouds.12 mph57%30.26 "Hg10 mi
5:52 PM75 °FPartly sunny.7 mph43%30.26 "Hg10 mi
4:52 PM77 °FPartly sunny.8 mph42%30.25 "Hg10 mi
3:52 PM77 °FPartly sunny.7 mph39%30.25 "Hg10 mi
2:52 PM76 °FPartly sunny.6 mph47%30.25 "Hg10 mi
1:52 PM76 °FBroken clouds.6 mph47%30.26 "Hg10 mi
12:52 PM75 °FPartly sunny.6 mph50%30.27 "Hg10 mi
11:52 AM73 °FPartly sunny.5 mph55%30.27 "Hg10 mi
10:52 AM70 °FScattered clouds.8 mph59%30.27 "Hg10 mi
9:52 AM66 °FPartly sunny.10 mph63%30.26 "Hg10 mi
8:52 AM63 °FPartly sunny.10 mph68%30.25 "Hg10 mi
7:52 AM61 °FScattered clouds.12 mph70%30.23 "Hg10 mi
6:52 AM61 °FPassing clouds.8 mph70%30.21 "Hg10 mi
Weather by CustomWeather, © 2014

See weather overviewHow to use our weather pages